Todd G — WRC6671 — position and weather

sailwx.info

Track history (hours):
 
Tides and Currents Weather Stations Pressure Air Temp Water Temp Dewpoint Dewpoint Depression Visibility Wind Speed Wind Dir Waves Ship Positions

Todd G

Owner: Harbor Towing & Fleeting, Inc., Metairie, LA. More information available from US FCC via Universal Licensing System and Coast Guard Vessel Documentation Center.

Last reported at 2014-Oct-25 07:32 UTC. Time now 2014-Oct-25 08:50 UTC.
Position N 29°60' W 090°00'.

Length 16 m.

Type: Towing. MMSI: 366988470.

Date/timePositionNaut miles runAvg speedWind from/ knotsBaromVisibWave heightAir tempDewpointWater temp
2014-Oct-25 07:32N 29°60' W 090°00'1 1.0
2014-Oct-25 06:26N 29°59' W 090°01'2 2.3
2014-Oct-25 05:32N 29°57' W 090°01'2 1.6
2014-Oct-25 04:33N 29°56' W 090°00'0 0.1
2014-Oct-25 02:06N 29°56' W 090°00'2 3.8
2014-Oct-25 01:31N 29°58' W 090°02'1 0.8
2014-Oct-25 00:31N 29°58' W 090°02'2 2.2
2014-Oct-24 23:32N 29°60' W 090°00'1 1.1
2014-Oct-24 22:33N 29°59' W 090°01'0 0.0
2014-Oct-24 21:33N 29°59' W 090°01'0 0.3
2014-Oct-24 20:33N 29°59' W 090°01'0 0.3
2014-Oct-24 19:33N 29°60' W 090°01'0 0.2
2014-Oct-24 18:26N 29°60' W 090°01'0 0.2
2014-Oct-24 17:34N 29°60' W 090°01'0 0.3
2014-Oct-24 16:33N 29°59' W 090°01'0 0.0
2014-Oct-24 13:24N 29°59' W 090°01'0 0.2
2014-Oct-24 12:31N 29°59' W 090°01'1 0.1
2014-Oct-24 05:17N 29°59' W 090°01'2 2.8
2014-Oct-24 04:28N 29°60' W 089°59'3 2.8
2014-Oct-24 03:23N 29°58' W 090°02'2 1.0
2014-Oct-24 01:31N 29°56' W 090°00'1 1.0
2014-Oct-24 00:34N 29°57' W 090°01'3 2.4
2014-Oct-23 23:32N 29°60' W 090°01'1 1.2
2014-Oct-23 22:33N 29°58' W 090°01'0 0.0
2014-Oct-23 21:32N 29°58' W 090°01'1 0.6
2014-Oct-23 20:31N 29°58' W 090°02'1 0.5
2014-Oct-23 19:28N 29°57' W 090°01'0 0.0
2014-Oct-23 18:33N 29°57' W 090°01'0 0.4
2014-Oct-23 17:33N 29°57' W 090°01'1 0.8
2014-Oct-23 16:19N 29°56' W 090°00'0 0.0
2014-Oct-23 00:12N 29°56' W 090°00'0 0.1
2014-Oct-22 23:31N 29°56' W 090°00'0 0.0
2014-Oct-22 21:21N 29°56' W 090°00'0 0.1
2014-Oct-22 20:27N 29°56' W 090°00'2 2.5
2014-Oct-22 19:33N 29°58' W 090°02'1 0.6
2014-Oct-22 18:29N 29°58' W 090°02'1 0.9
2014-Oct-22 17:31N 29°58' W 090°01'3 2.6
2014-Oct-22 16:31N 29°60' W 089°59'2 0.1
2014-Oct-21 08:28N 29°59' W 090°01'1 0.1
2014-Oct-20 11:20N 29°60' W 090°00'  
Track history (hours):
 
Tides and Currents Weather Stations Pressure Air Temp Water Temp Dewpoint Dewpoint Depression Visibility Wind Speed Wind Dir Waves Ship Positions

Todd G

Owner: Harbor Towing & Fleeting, Inc., Metairie, LA. More information available from US FCC via Universal Licensing System and Coast Guard Vessel Documentation Center.

Last reported at 2014-Oct-25 07:32 UTC. Time now 2014-Oct-25 08:50 UTC.
Position N 29°60' W 090°00'.

Length 16 m.

Type: Towing. MMSI: 366988470.

Date/timePositionNaut miles runAvg speedWind from/ knotsBaromVisibWave heightAir tempDewpointWater temp
2014-Oct-25 07:32N 29°60' W 090°00'1 1.0
2014-Oct-25 06:26N 29°59' W 090°01'2 2.3
2014-Oct-25 05:32N 29°57' W 090°01'2 1.6
2014-Oct-25 04:33N 29°56' W 090°00'0 0.1
2014-Oct-25 02:06N 29°56' W 090°00'2 3.8
2014-Oct-25 01:31N 29°58' W 090°02'1 0.8
2014-Oct-25 00:31N 29°58' W 090°02'2 2.2
2014-Oct-24 23:32N 29°60' W 090°00'1 1.1
2014-Oct-24 22:33N 29°59' W 090°01'0 0.0
2014-Oct-24 21:33N 29°59' W 090°01'0 0.3
2014-Oct-24 20:33N 29°59' W 090°01'0 0.3
2014-Oct-24 19:33N 29°60' W 090°01'0 0.2
2014-Oct-24 18:26N 29°60' W 090°01'0 0.2
2014-Oct-24 17:34N 29°60' W 090°01'0 0.3
2014-Oct-24 16:33N 29°59' W 090°01'0 0.0
2014-Oct-24 13:24N 29°59' W 090°01'0 0.2
2014-Oct-24 12:31N 29°59' W 090°01'1 0.1
2014-Oct-24 05:17N 29°59' W 090°01'2 2.8
2014-Oct-24 04:28N 29°60' W 089°59'3 2.8
2014-Oct-24 03:23N 29°58' W 090°02'2 1.0
2014-Oct-24 01:31N 29°56' W 090°00'1 1.0
2014-Oct-24 00:34N 29°57' W 090°01'3 2.4
2014-Oct-23 23:32N 29°60' W 090°01'1 1.2
2014-Oct-23 22:33N 29°58' W 090°01'0 0.0
2014-Oct-23 21:32N 29°58' W 090°01'1 0.6
2014-Oct-23 20:31N 29°58' W 090°02'1 0.5
2014-Oct-23 19:28N 29°57' W 090°01'0 0.0
2014-Oct-23 18:33N 29°57' W 090°01'0 0.4
2014-Oct-23 17:33N 29°57' W 090°01'1 0.8
2014-Oct-23 16:19N 29°56' W 090°00'0 0.0
2014-Oct-23 00:12N 29°56' W 090°00'0 0.1
2014-Oct-22 23:31N 29°56' W 090°00'0 0.0
2014-Oct-22 21:21N 29°56' W 090°00'0 0.1
2014-Oct-22 20:27N 29°56' W 090°00'2 2.5
2014-Oct-22 19:33N 29°58' W 090°02'1 0.6
2014-Oct-22 18:29N 29°58' W 090°02'1 0.9
2014-Oct-22 17:31N 29°58' W 090°01'3 2.6
2014-Oct-22 16:31N 29°60' W 089°59'2 0.1
2014-Oct-21 08:28N 29°59' W 090°01'1 0.1
2014-Oct-20 11:20N 29°60' W 090°00'  

Dump ship's entire track history